TimeAKST,TemperatureF,Dew PointF,Humidity,Sea Level PressureIn,VisibilityMPH,Wind Direction,Wind SpeedMPH,Gust SpeedMPH,PrecipitationIn,Events,Conditions,WindDirDegrees,DateUTC
12:16 AM,35.6,32.0,87,29.94,10.0,SSE,3.5,-,N/A,,Clear,150,2012-11-13 09:16:00
12:36 AM,37.4,32.0,81,29.93,10.0,Calm,Calm,-,N/A,,Clear,0,2012-11-13 09:36:00
12:56 AM,37.4,32.0,81,29.93,10.0,Calm,Calm,-,N/A,,Mostly Cloudy,0,2012-11-13 09:56:00
1:16 AM,37.4,32.0,81,29.92,10.0,Calm,Calm,-,N/A,,Overcast,0,2012-11-13 10:16:00
1:36 AM,37.4,32.0,81,29.91,10.0,Calm,Calm,-,N/A,,Overcast,0,2012-11-13 10:36:00
1:56 AM,37.4,33.8,87,29.90,10.0,Calm,Calm,-,N/A,,Overcast,0,2012-11-13 10:56:00
2:16 AM,37.4,32.0,81,29.89,10.0,SSW,3.5,-,N/A,,Overcast,210,2012-11-13 11:16:00
2:36 AM,39.2,33.8,81,29.87,10.0,Calm,Calm,-,N/A,,Overcast,0,2012-11-13 11:36:00
2:56 AM,42.8,35.6,76,29.86,10.0,South,13.8,-,N/A,,Mostly Cloudy,190,2012-11-13 11:56:00
3:16 AM,42.8,35.6,76,29.85,10.0,SSE,12.7,-,N/A,,Mostly Cloudy,150,2012-11-13 12:16:00
3:36 AM,42.8,35.6,76,29.83,10.0,SE,13.8,17.3,N/A,,Scattered Clouds,130,2012-11-13 12:36:00
3:56 AM,42.8,35.6,76,29.82,10.0,SE,13.8,21.9,N/A,,Mostly Cloudy,140,2012-11-13 12:56:00
4:16 AM,42.8,35.6,76,29.80,10.0,ESE,13.8,24.2,N/A,,Mostly Cloudy,120,2012-11-13 13:16:00
4:36 AM,42.8,37.4,81,29.78,10.0,SE,13.8,24.2,N/A,,Mostly Cloudy,130,2012-11-13 13:36:00
4:56 AM,44.6,37.4,76,29.76,10.0,SSE,10.4,18.4,N/A,,Mostly Cloudy,150,2012-11-13 13:56:00
5:16 AM,42.8,37.4,81,29.74,10.0,SSE,21.9,27.6,N/A,,Mostly Cloudy,150,2012-11-13 14:16:00
5:36 AM,42.8,37.4,81,29.73,10.0,SE,18.4,26.5,N/A,,Mostly Cloudy,140,2012-11-13 14:36:00
5:56 AM,42.8,37.4,81,29.72,10.0,SE,13.8,24.2,N/A,,Partly Cloudy,140,2012-11-13 14:56:00
6:16 AM,44.6,37.4,76,29.69,10.0,SSE,17.3,21.9,N/A,,Partly Cloudy,150,2012-11-13 15:16:00
6:36 AM,44.6,37.4,76,29.67,10.0,SE,23.0,33.4,N/A,,Partly Cloudy,140,2012-11-13 15:36:00
6:56 AM,44.6,37.4,76,29.67,8.0,SSE,19.6,31.1,N/A,,Clear,150,2012-11-13 15:56:00
7:16 AM,44.6,37.4,76,29.66,10.0,SE,18.4,28.8,N/A,,Clear,140,2012-11-13 16:16:00
7:36 AM,42.8,37.4,81,29.65,8.0,SE,13.8,26.5,N/A,,Clear,140,2012-11-13 16:36:00
7:56 AM,42.8,37.4,81,29.63,9.0,East,13.8,19.6,N/A,,Clear,100,2012-11-13 16:56:00
8:16 AM,44.6,37.4,76,29.61,8.0,SSE,9.2,26.5,N/A,,Clear,150,2012-11-13 17:16:00
8:36 AM,46.4,37.4,71,29.59,8.0,SSE,6.9,16.1,N/A,,Clear,150,2012-11-13 17:36:00
8:56 AM,46.4,39.2,76,29.57,9.0,SE,9.2,-,N/A,,Clear,130,2012-11-13 17:56:00
9:16 AM,46.4,39.2,76,29.56,8.0,South,15.0,27.6,N/A,,Clear,190,2012-11-13 18:16:00
9:36 AM,46.4,39.2,76,29.56,7.0,North,3.5,20.7,N/A,,Mostly Cloudy,360,2012-11-13 18:36:00
9:56 AM,46.4,39.2,76,29.55,5.0,SE,5.8,-,N/A,,Scattered Clouds,140,2012-11-13 18:56:00
10:16 AM,48.2,37.4,66,29.54,5.0,SE,10.4,16.1,N/A,,Scattered Clouds,130,2012-11-13 19:16:00
10:36 AM,48.2,39.2,71,29.52,8.0,SSW,11.5,-,N/A,,Mostly Cloudy,200,2012-11-13 19:36:00
10:56 AM,48.2,37.4,66,29.51,10.0,South,6.9,-,N/A,,Overcast,180,2012-11-13 19:56:00
11:16 AM,46.4,39.2,76,29.51,10.0,West,4.6,-,N/A,,Overcast,270,2012-11-13 20:16:00
11:36 AM,44.6,39.2,81,29.50,10.0,NNW,9.2,-,N/A,,Overcast,340,2012-11-13 20:36:00
11:56 AM,46.4,39.2,76,29.48,10.0,North,4.6,-,N/A,,Overcast,360,2012-11-13 20:56:00
12:16 PM,46.4,39.2,76,29.48,10.0,Calm,Calm,-,N/A,,Overcast,0,2012-11-13 21:16:00
12:36 PM,46.4,39.2,76,29.48,10.0,North,8.1,-,N/A,,Overcast,10,2012-11-13 21:36:00
12:56 PM,46.4,39.2,76,29.47,10.0,NE,9.2,-,N/A,,Overcast,40,2012-11-13 21:56:00
1:16 PM,48.2,39.2,71,29.47,10.0,NNE,8.1,-,N/A,,Overcast,30,2012-11-13 22:16:00
1:36 PM,46.4,39.2,76,29.47,10.0,South,6.9,-,N/A,,Mostly Cloudy,190,2012-11-13 22:36:00
1:56 PM,48.2,35.6,62,29.47,10.0,West,13.8,25.3,N/A,,Partly Cloudy,260,2012-11-13 22:56:00
2:16 PM,48.2,33.8,58,29.47,10.0,WSW,15.0,20.7,N/A,,Partly Cloudy,250,2012-11-13 23:16:00
2:36 PM,48.2,28.4,46,29.47,10.0,South,8.1,31.1,N/A,,Partly Cloudy,180,2012-11-13 23:36:00
2:56 PM,46.4,28.4,50,29.47,10.0,West,8.1,23.0,N/A,,Clear,270,2012-11-13 23:56:00
3:16 PM,46.4,28.4,50,29.47,10.0,SW,10.4,24.2,N/A,,Clear,220,2012-11-14 00:16:00
3:36 PM,46.4,28.4,50,29.47,10.0,SW,8.1,20.7,N/A,,Clear,230,2012-11-14 00:36:00
3:56 PM,46.4,28.4,50,29.47,10.0,SW,4.6,16.1,N/A,,Clear,230,2012-11-14 00:56:00
4:16 PM,46.4,26.6,46,29.46,10.0,West,9.2,32.2,N/A,,Partly Cloudy,260,2012-11-14 01:16:00
4:36 PM,44.6,26.6,49,29.47,10.0,West,6.9,-,N/A,,Scattered Clouds,270,2012-11-14 01:36:00
4:56 PM,44.6,26.6,49,29.47,10.0,SW,13.8,31.1,N/A,,Scattered Clouds,230,2012-11-14 01:56:00
5:16 PM,44.6,26.6,49,29.48,10.0,SSW,11.5,23.0,N/A,,Mostly Cloudy,210,2012-11-14 02:16:00
5:36 PM,44.6,26.6,49,29.48,10.0,South,6.9,24.2,N/A,,Mostly Cloudy,180,2012-11-14 02:36:00
5:56 PM,44.6,24.8,46,29.46,10.0,SSW,19.6,25.3,N/A,,Mostly Cloudy,210,2012-11-14 02:56:00
6:16 PM,44.6,26.6,49,29.46,10.0,SSE,6.9,-,N/A,,Overcast,150,2012-11-14 03:16:00
6:36 PM,44.6,26.6,49,29.45,10.0,SE,6.9,24.2,N/A,,Overcast,140,2012-11-14 03:36:00
6:56 PM,44.6,28.4,53,29.44,10.0,SSW,8.1,-,N/A,,Overcast,210,2012-11-14 03:56:00
7:16 PM,44.6,26.6,49,29.44,10.0,NE,4.6,18.4,N/A,,Overcast,50,2012-11-14 04:16:00
7:36 PM,42.8,28.4,57,29.44,10.0,NW,4.6,-,N/A,,Mostly Cloudy,320,2012-11-14 04:36:00
7:56 PM,42.8,30.2,61,29.43,10.0,ESE,6.9,-,N/A,,Overcast,110,2012-11-14 04:56:00
8:16 PM,42.8,30.2,61,29.43,10.0,Calm,Calm,-,N/A,,Mostly Cloudy,0,2012-11-14 05:16:00
8:36 PM,44.6,30.2,57,29.43,10.0,WSW,5.8,-,N/A,,Overcast,240,2012-11-14 05:36:00
8:56 PM,42.8,30.2,61,29.42,10.0,ENE,3.5,-,N/A,,Overcast,60,2012-11-14 05:56:00
9:16 PM,42.8,30.2,61,29.42,10.0,Calm,Calm,-,N/A,,Overcast,0,2012-11-14 06:16:00
9:36 PM,42.8,32.0,66,29.41,9.0,South,6.9,21.9,N/A,,Overcast,190,2012-11-14 06:36:00
9:56 PM,41.0,33.8,76,29.42,10.0,NE,5.8,-,N/A,,Overcast,40,2012-11-14 06:56:00
10:16 PM,42.8,33.8,70,29.41,10.0,ENE,5.8,-,N/A,,Overcast,70,2012-11-14 07:16:00
10:36 PM,42.8,33.8,70,29.40,9.0,ESE,3.5,-,N/A,,Overcast,120,2012-11-14 07:36:00
10:56 PM,42.8,33.8,70,29.39,10.0,NNW,5.8,-,N/A,,Overcast,330,2012-11-14 07:56:00
11:16 PM,41.0,35.6,81,29.40,7.0,Calm,Calm,-,N/A,,Overcast,0,2012-11-14 08:16:00
11:36 PM,41.0,35.6,81,29.39,8.0,ENE,6.9,16.1,N/A,,Overcast,70,2012-11-14 08:36:00
11:56 PM,41.0,35.6,81,29.38,10.0,ENE,8.1,-,N/A,,Overcast,60,2012-11-14 08:56:00